Location: Chircca
(13.7944°S, 72.0608°W)
Time: 06:02:17
(UTC+00:00)

Cosmos 2026 Rocket - Pass Details

Date: 14 July 2020
Orbit: 938 x 1002 km, 82.9° (Epoch: 14 August)

Event Time Altitude Azimuth Distance (km) Brightness Sun altitude
Rises 09:57:10 0° 348° (NNW) 3,579 7.1 -18.1°
Reaches altitude 10° 09:59:40 10° 345° (NNW) 2,642 6.3 -17.5°
Maximum altitude 10:05:35 60° 266° (W) 1,070 3.9 -16.1°
Drops below altitude 10° 10:11:38 10° 186° (S) 2,688 6.1 -14.7°
Sets 10:14:12 0° 182° (S) 3,647 6.8 -14.2°
